Printer-friendly version

IAU Minor Planet Center

Minor Planet Center

(144) Vibilia

Orbital Elements

The following orbital elements are taken from MPC 22665:
  (144) Vibilia
Epoch 2007 Apr. 10.0 TT = JDT 2454200.5  (M-c)          Goffin
M  85.76076              (2000.0)            P               Q
n   0.22792902     Peri.  293.63252     +0.98131004     -0.17432103
a   2.6542162      Node    76.48645     +0.19243317     +0.88954192
e   0.2356057      Incl.    4.80840     -0.00027089     +0.42228823
P   4.32           H    7.91          G   0.17
From 238 observations at 54 oppositions, 1875-1990, mean residual 0".99.
An explanation of the orbital elements is available.

These orbital elements are also available in forms suitable for loading into a number of popular planetarium-type software programs.


Ephemeris

The following ephemeris is at intervals of five days. A daily ephemeris covering the same time interval is also available.

Personalized ephemerides for this object (and others) can be generated using the MPES.

Date    TT    R. A. (2000) Decl.     Delta      r     Elong.  Phase     V
2007 01 01    06 44.19   +26 13.2    1.524    2.506   176.8     1.2    11.0
2007 01 06    06 38.75   +26 26.7    1.541    2.519   172.7     2.8    11.1
2007 01 11    06 33.56   +26 38.0    1.564    2.532   166.8     5.1    11.3
2007 01 16    06 28.78   +26 47.3    1.595    2.545   160.8     7.3    11.5
2007 01 21    06 24.54   +26 54.5    1.632    2.557   154.8     9.4    11.6
2007 01 26    06 20.98   +26 59.9    1.676    2.570   148.9    11.4    11.8
2007 01 31    06 18.15   +27 03.6    1.725    2.583   143.3    13.2    11.9

Back to Bright Minor Planets

Astronomical Headlines Index

MPC


Valid HTML 4.01!